This is the latest recevied weather packets stored in our database for station/object HB9FHL-13. If no packets are shown the sender has not sent any weather packets the latest 10 day(s).
| Time | Temp. | Humidity | Pressure | Rain* | Wind** | Luminosity | Snow |
|---|---|---|---|---|---|---|---|
| 1777588658 | 9.44° C | - | 1023.7 hPa | 0 mm | - | - | - |
| 1777588358 | 10° C | - | 1019.5 hPa | 0 mm | - | - | - |
| 1777588057 | 10.56° C | - | 1023.8 hPa | 0 mm | - | - | - |
| 1777587757 | 10.56° C | - | 1025 hPa | 0 mm | - | - | - |
| 1777587456 | 10° C | - | 1022.5 hPa | 0 mm | - | - | - |
| 1777587156 | 10° C | - | 1022.4 hPa | 0 mm | - | - | - |
| 1777586855 | 10° C | - | 1023.6 hPa | 0 mm | - | - | - |
| 1777586555 | 10.56° C | - | 1023 hPa | 0 mm | - | - | - |
| 1777586254 | 10° C | - | 1021.2 hPa | 0 mm | - | - | - |
| 1777585954 | 10° C | - | 1024.5 hPa | 0 mm | - | - | - |
| 1777585654 | 10.56° C | - | 1023.3 hPa | 0 mm | - | - | - |
| 1777585353 | 10.56° C | - | 1023.3 hPa | 0 mm | - | - | - |
| 1777585053 | 10.56° C | - | 1024.3 hPa | 0 mm | - | - | - |
| 1777584751 | 10° C | - | 1022.3 hPa | 0 mm | - | - | - |
| 1777584451 | 10.56° C | - | 1022.8 hPa | 0 mm | - | - | - |
| 1777584150 | 11.11° C | - | 1019.8 hPa | 0 mm | - | - | - |
| 1777583850 | 11.11° C | - | 1023.3 hPa | 0 mm | - | - | - |
| 1777583549 | 11.11° C | - | 1021.2 hPa | 0 mm | - | - | - |
| 1777583249 | 10.56° C | - | 1026.1 hPa | 0 mm | - | - | - |
| 1777582948 | 11.11° C | - | 1025.3 hPa | 0 mm | - | - | - |
| 1777582648 | 10° C | - | 1024.2 hPa | 0 mm | - | - | - |
| 1777582347 | 10.56° C | - | 1022.7 hPa | 0 mm | - | - | - |
| 1777582047 | 11.67° C | - | 1023.3 hPa | 0 mm | - | - | - |
| 1777581746 | 11.67° C | - | 1023.3 hPa | 0 mm | - | - | - |
| 1777581446 | 11.67° C | - | 1020.2 hPa | 0 mm | - | - | - |
* Rain since midnight (hover to see other rain measurements)
** Current wind speed in m/s (hover to see current wind gust speed)